Pilot Mountain, NC

2:17 PM EDT on July 23, 2016 (GMT -0400)
Mount Airy-Surry County

Weather History for KMWK - March, 2013

Change the Weather History Date:

Thursday, March 28, 2013

  Actual Average (KINT) Record (KINT)
Temperature  
Mean Temperature 42 °F -  
Max Temperature 55 °F 62 °F 82 °F (2007)
Min Temperature 28 °F 43 °F 15 °F (1982)
Degree Days  
Heating Degree Days 24    
Moisture  
Dew Point 18 °F    
Average Humidity 42    
Maximum Humidity 70    
Minimum Humidity 25    
Precipitation  
Precipitation 0.00 in - - ()
Sea Level Pressure  
Sea Level Pressure 30.22 in    
Wind  
Wind Speed 3 mph (NW)    
Max Wind Speed 14 mph    
Max Gust Speed 22 mph    
Visibility 10 miles    
Events      
Averages and records for this station are not official NWS values.
T = Trace of Precipitation, MM = Missing Value Source: NWS Daily Summary

Daily Weather History Graph

Daily Weather History Graph

Search for Another Location

Airport or City:

Trip Planner

Search our weather history database for the weather conditions in past years. The results will help you decide how hot, cold, wet, or windy it might be!

Date:

Astronomy

Mar. 28, 2013 Rise Set
Actual Time 7:13 AM EDT 7:41 PM EDT
Civil Twilight 6:47 AM EDT 8:07 PM EDT
Nautical Twilight 6:17 AM EDT 8:37 PM EDT
Astronomical Twilight 5:46 AM EDT 9:08 PM EDT
Moon 9:27 PM EDT (3/28) 7:43 AM EDT (3/28)
Length of Visible Light 13h 19m
Length of Day
12h 27m
Full, 98% of the Moon is Illuminated
Mar 28
Full
Apr 3
Last Quarter
Apr 10
New
Apr 18
First Quarter
Apr 25
Full

Hourly Weather History & Observations

Time (EDT) Temp. Windchill Dew Point Humidity Pressure Visibility Wind Dir Wind Speed Gust Speed Precip Events Conditions
12:15 AM 29.7 °F - 14.0 °F 52% 30.22 in 10.0 mi Calm Calm - N/A   Scattered Clouds
12:35 AM 29.8 °F - 14.7 °F 53% 30.22 in 10.0 mi Calm Calm - N/A   Scattered Clouds
12:55 AM 29.5 °F - 12.9 °F 50% 30.22 in 10.0 mi Calm Calm - N/A   Scattered Clouds
1:15 AM 28.8 °F - 12.4 °F 50% 30.21 in 10.0 mi Calm Calm - N/A   Clear
1:35 AM 28.4 °F - 12.7 °F 52% 30.21 in 10.0 mi Calm Calm - N/A   Scattered Clouds
1:55 AM 28.4 °F - 14.5 °F 56% 30.21 in 10.0 mi Calm Calm - N/A   Clear
2:15 AM 30.4 °F - 20.5 °F 67% 30.21 in 10.0 mi Calm Calm - N/A   Clear
2:55 AM 33.1 °F - 21.6 °F 63% 30.20 in 10.0 mi Calm Calm - N/A   Mostly Cloudy
3:35 AM 29.5 °F - 15.8 °F 57% 30.20 in 10.0 mi Calm Calm - N/A   Clear
3:55 AM 31.8 °F - 22.1 °F 67% 30.19 in 10.0 mi Calm Calm - N/A   Clear
4:15 AM 32.0 °F - 20.7 °F 63% 30.19 in 10.0 mi Calm Calm - N/A   Clear
4:35 AM 28.9 °F - 16.0 °F 58% 30.20 in 10.0 mi Calm Calm - N/A   Clear
4:55 AM 30.0 °F - 20.1 °F 67% 30.20 in 10.0 mi Calm Calm - N/A   Clear
5:15 AM 28.4 °F 24.6 °F 17.2 °F 63% 30.20 in 10.0 mi NW 3.5 mph - N/A   Clear
5:35 AM 29.8 °F - 19.9 °F 67% 30.20 in 10.0 mi Calm Calm - N/A   Clear
5:55 AM 31.1 °F - 21.0 °F 66% 30.20 in 10.0 mi Calm Calm - N/A   Mostly Cloudy
6:15 AM 30.0 °F - 19.4 °F 65% 30.20 in 10.0 mi Calm Calm - N/A   Overcast
6:35 AM 28.9 °F - 17.4 °F 62% 30.20 in 10.0 mi Calm Calm - N/A   Mostly Cloudy
6:55 AM 28.6 °F 23.5 °F 19.8 °F 70% 30.20 in 10.0 mi NW 4.6 mph - N/A   Clear
7:15 AM 32.0 °F - 23.4 °F 70% 30.20 in 10.0 mi Calm Calm - N/A   Scattered Clouds
7:35 AM 33.4 °F 26.6 °F 23.9 °F 68% 30.21 in 10.0 mi NNW 8.1 mph - N/A   Mostly Cloudy
7:55 AM 35.6 °F 32.8 °F 23.7 °F 62% 30.22 in 10.0 mi NW 3.5 mph - N/A   Scattered Clouds
8:15 AM 36.9 °F 32.2 °F 23.7 °F 59% 30.22 in 10.0 mi NNW 5.8 mph - N/A   Scattered Clouds
8:35 AM 38.3 °F 33.9 °F 23.4 °F 55% 30.23 in 10.0 mi NW 5.8 mph - N/A   Clear
8:55 AM 40.1 °F 34.7 °F 22.3 °F 49% 30.23 in 10.0 mi NW 8.1 mph 20.7 mph N/A   Clear
9:15 AM 41.4 °F 34.7 °F 20.1 °F 43% 30.23 in 10.0 mi WNW 11.5 mph 18.4 mph N/A   Clear
9:35 AM 43.2 °F 37.4 °F 19.6 °F 39% 30.24 in 10.0 mi NW 10.4 mph 19.6 mph N/A   Scattered Clouds
9:55 AM 43.7 °F 39.7 °F 19.2 °F 38% 30.24 in 10.0 mi WNW 6.9 mph - N/A   Clear
10:15 AM 43.2 °F 37.9 °F 18.3 °F 37% 30.24 in 10.0 mi NW 9.2 mph 18.4 mph N/A   Clear
10:55 AM 46.0 °F 41.0 °F 21.4 °F 38% 30.25 in 10.0 mi NNW 10.4 mph - N/A   Scattered Clouds
11:15 AM 46.6 °F - 19.2 °F 34% 30.25 in 10.0 mi WNW 13.8 mph 21.9 mph N/A   Scattered Clouds
11:35 AM 47.5 °F - 20.7 °F 35% 30.24 in 10.0 mi NW 5.8 mph - N/A   Clear
11:55 AM 49.5 °F - 20.3 °F 32% 30.24 in 10.0 mi West 12.7 mph 16.1 mph N/A   Scattered Clouds
12:15 PM 48.4 °F - 18.3 °F 30% 30.24 in 10.0 mi NW 11.5 mph 17.3 mph N/A   Scattered Clouds
12:35 PM 49.6 °F - 20.3 °F 31% 30.23 in 10.0 mi NW 8.1 mph 16.1 mph N/A   Clear
12:55 PM 52.2 °F - 20.5 °F 29% 30.22 in 10.0 mi North 6.9 mph - N/A   Clear
1:15 PM 52.2 °F - 20.3 °F 29% 30.22 in 10.0 mi West 9.2 mph 18.4 mph N/A   Clear
1:35 PM 52.7 °F - 19.8 °F 27% 30.22 in 10.0 mi WNW 10.4 mph - N/A   Clear
1:55 PM 53.4 °F - 21.7 °F 29% 30.21 in 10.0 mi NNE 5.8 mph - N/A   Clear
2:15 PM 53.6 °F - 19.6 °F 26% 30.20 in 10.0 mi NW 9.2 mph - N/A   Clear
2:35 PM 53.6 °F - 19.0 °F 26% 30.20 in 10.0 mi WNW 8.1 mph - N/A   Clear
2:55 PM 53.2 °F - 18.5 °F 26% 30.20 in 10.0 mi North 8.1 mph 18.4 mph N/A   Clear
3:15 PM 55.2 °F - 20.5 °F 26% 30.20 in 10.0 mi WNW 10.4 mph 16.1 mph N/A   Scattered Clouds
3:35 PM 54.1 °F - 18.3 °F 25% 30.19 in 10.0 mi NW 10.4 mph 19.6 mph N/A   Scattered Clouds
3:55 PM 54.3 °F - 19.2 °F 25% 30.19 in 10.0 mi WNW 6.9 mph 16.1 mph N/A   Scattered Clouds
4:15 PM 54.9 °F - 19.8 °F 25% 30.19 in 10.0 mi WNW 8.1 mph - N/A   Scattered Clouds
4:35 PM 54.1 °F - 18.3 °F 25% 30.19 in 10.0 mi West 8.1 mph - N/A   Scattered Clouds
4:55 PM 53.2 °F - 17.6 °F 25% 30.19 in 10.0 mi North 5.8 mph 18.4 mph N/A   Scattered Clouds
5:15 PM 52.7 °F - 17.8 °F 25% 30.19 in 10.0 mi NW 11.5 mph 17.3 mph N/A   Scattered Clouds
5:35 PM 53.2 °F - 18.3 °F 25% 30.19 in 10.0 mi NNW 11.5 mph 17.3 mph N/A   Clear
5:55 PM 52.2 °F - 17.4 °F 25% 30.20 in 10.0 mi WNW 9.2 mph - N/A   Clear
6:15 PM 52.5 °F - 16.9 °F 25% 30.20 in 10.0 mi NW 13.8 mph 17.3 mph N/A   Clear
6:35 PM 51.6 °F - 17.4 °F 26% 30.21 in 10.0 mi NW 9.2 mph 19.6 mph N/A   Clear
6:55 PM 50.4 °F - 17.1 °F 27% 30.21 in 10.0 mi NW 6.9 mph - N/A   Clear
7:15 PM 48.6 °F - 17.4 °F 29% 30.22 in 10.0 mi NW 8.1 mph - N/A   Clear
7:35 PM 46.9 °F - 18.0 °F 32% 30.22 in 10.0 mi NW 9.2 mph 18.4 mph N/A   Clear
7:55 PM 45.7 °F 43.4 °F 18.0 °F 33% 30.22 in 10.0 mi NW 4.6 mph - N/A   Clear
8:15 PM 44.6 °F 42.2 °F 18.5 °F 35% 30.24 in 10.0 mi WNW 4.6 mph - N/A   Clear
8:35 PM 43.9 °F 40.5 °F 18.5 °F 36% 30.24 in 10.0 mi NW 5.8 mph - N/A   Clear
8:55 PM 42.8 °F - 18.0 °F 37% 30.24 in 10.0 mi Calm Calm - N/A   Clear
9:15 PM 40.8 °F - 14.4 °F 34% 30.25 in 10.0 mi Calm Calm - N/A   Clear
9:35 PM 37.9 °F 35.5 °F 9.9 °F 31% 30.25 in 10.0 mi ENE 3.5 mph - N/A   Clear
9:55 PM 35.6 °F - 11.7 °F 37% 30.26 in 10.0 mi Calm Calm - N/A   Clear
10:15 PM 35.4 °F - 12.2 °F 38% 30.27 in 10.0 mi Calm Calm - N/A   Clear
10:35 PM 40.5 °F 38.4 °F 21.2 °F 46% 30.27 in 10.0 mi WNW 3.5 mph - N/A   Clear
10:55 PM 38.1 °F - 14.4 °F 38% 30.27 in 10.0 mi Calm Calm - N/A   Clear
11:15 PM 34.0 °F - 10.4 °F 38% 30.27 in 10.0 mi Calm Calm - N/A   Clear
11:35 PM 33.1 °F - 12.4 °F 42% 30.27 in 10.0 mi Calm Calm - N/A   Clear
11:55 PM 31.8 °F - 14.7 °F 49% 30.27 in 10.0 mi Calm Calm - N/A   Clear